Regional Weather Roundup
Issued by NWS

Home | Current Version | Previous Version | Graphics & Text | Print | Product List | Glossary Off
Versions: 1 2 3 4 5 6 7 8 9 10 11 12 13 14 15 16 17 18 19 20 21 22 23 24 25 26 27 28 29 30 31 32 33 34 35 36 37 38 39 40 41 42 43 44 45 46 47 48 49 50

000
ASUS43 KTOP 190859
RWRKS

WEATHER ROUNDUP FOR KANSAS
NATIONAL WEATHER SERVICE GOODLAND KS
300 AM CST FRI JAN 19 2018

NOTE:  "FAIR" INDICATES FEW OR NO CLOUDS BELOW 12,000 FEET WITH NO
SIGNIFICANT WEATHER AND/OR OBSTRUCTIONS TO VISIBILITY.

KSZ001>006-013>018-027>032-041>047-191000-
NORTHWEST KANSAS

CITY           SKY/WX    TMP DP  RH WIND       PRES   REMARKS
GOODLAND       PTCLDY    40  15  36 SW13      29.83F WCI  32
HAYS           CLOUDY    32  18  56 SW8       29.89F
HILL CITY      CLOUDY    33  13  43 W5        29.85F
RUSSELL        CLOUDY    33  18  53 S17       29.87F WCI  22
$$

KSZ061>065-074>080-084>089-191000-
SOUTHWEST KANSAS

CITY           SKY/WX    TMP DP  RH WIND       PRES   REMARKS
DODGE CITY     CLOUDY    34  13  41 SW15      29.92S WCI  24
GARDEN CITY    CLOUDY    29   7  39 W8        29.89F
GREAT BEND     CLOUDY    32  19  58 S12       29.92S WCI  23
LIBERAL        CLOUDY    25   9  50 SW7       29.93S
$$

KSZ066>073-081>083-090>101-191000-
SOUTHEAST KANSAS

CITY           SKY/WX    TMP DP  RH WIND       PRES   REMARKS
CHANUTE        CLOUDY    31  15  52 S14       30.08F WCI  21
COFFEYVILLE    CLOUDY    32  15  49 S14       30.12F WCI  22
HUTCHINSON     CLOUDY    29  20  69 S8        29.97S
MEDICINE LODGE   N/A     27  18  69 CALM      29.98F
NEWTON         CLOUDY    32  19  58 S16       29.99F WCI  21
PARSONS        PTCLDY    31  16  54 S10       30.10F WCI  22
WICHITA INTL   CLOUDY    30  16  56 S13       30.01F WCI  20
WICHITA JABRA  CLOUDY    32  16  51 S16G25    30.01F WCI  21
WICHITA MCCONL CLOUDY    31  14  49 SW15      30.01F WCI  20
WINFIELD       CLOUDY    32  15  49 S9        30.06F
$$

KSZ007>012-019>026-033>040-048>060-102>105-191000-
NORTHEAST KANSAS

CITY           SKY/WX    TMP DP  RH WIND       PRES   REMARKS
CONCORDIA      CLOUDY    36  23  59 S20       29.86F WCI  25
EMPORIA        CLOUDY    30  18  60 S12       30.00F WCI  20
LAWRENCE       CLOUDY    35  20  54 S13       30.00F WCI  26
MANHATTAN      CLOUDY    37  23  56 SW12      29.93F WCI  29
OLATHE IND     CLOUDY    33  18  53 S18G24    30.02R WCI  22
OLATHE EXE     CLOUDY    31  18  58 S12       30.01S WCI  22
SALINA         CLOUDY    34  24  67 S12       29.93F WCI  25
TOPEKA BILLARD CLOUDY    34  21  59 S7        29.98F
TOPEKA FORBES  CLOUDY    34  20  56 S15       29.96F WCI  24
$$



USA.gov is the U.S. government's official web portal to all federal, state and local government web resources and services.